History for Norfolk, VA on Wednesday, January 28, 2015

Jump to data by:

Latest visited Airport Codes: KORF

Data type:
 

« Previous Day | Next Day »

 
Daily Summary
Actual Average Record
Temperature
Mean Temperature 34 °F 41 °F  
Max Temperature 40 °F 48 °F 76 °F (1944)
Min Temperature 28 °F 33 °F 13 °F (1961)
Degree Days
Heating Degree Days 31 24  
Month to date heating degree days 688 694  
Since 1 July heating degree days 1844 1873  
Cooling Degree Days 0 0  
Month to date cooling degree days 0 0  
Year to date cooling degree days 0 0  
Moisture
Dew Point 13 °F    
Average Humidity 44    
Maximum Humidity 63    
Minimum Humidity 23    
Precipitation
Precipitation 0.00 in 0.11 in 1.44 in (1882)
Month to date precipitation 3.58 3.07  
Year to date precipitation 3.58 3.07  
Snow
Snow 0.00 in 0.10 in 4.20 in (1962)
Month to date snowfall 1.0 2.3  
Since 1 July snowfall 1.0 3.5  
Snow Depth 0.00 in    
Sea Level Pressure
Sea Level Pressure 30.13 in    
Wind
Wind Speed 10 mph ()    
Max Wind Speed 21 mph    
Max Gust Speed 29 mph    
Visibility 10.0 miles    
Events     
Key: T is trace of precipitation, MM is missing value
Source: Averaged Metar Reports
Time (EST) Temp. Dew Point Humidity Sea Level Pressure Visibility Wind Direction Wind Speed Gust Speed Precip. Events Conditions
12:51 AM 33.1 °F 19.0 °F 56% 29.95 in 10.0 miles NNW 11.5 mph 21.9 mph N/A   Overcast
1:51 AM 32.0 °F 18.0 °F 56% 29.97 in 10.0 miles NNW 10.4 mph 19.6 mph N/A   Overcast
2:51 AM 32.0 °F 16.0 °F 52% 29.99 in 10.0 miles NNW 11.5 mph 18.4 mph N/A   Overcast
3:51 AM 30.9 °F 16.0 °F 54% 30.01 in 10.0 miles NNW 10.4 mph 20.7 mph N/A   Partly Cloudy
4:51 AM 30.0 °F 17.1 °F 59% 30.04 in 10.0 miles NNW 15.0 mph 23.0 mph N/A   Clear
5:51 AM 30.0 °F 16.0 °F 56% 30.07 in 10.0 miles NNW 15.0 mph 27.6 mph N/A   Clear
6:51 AM 28.9 °F 16.0 °F 58% 30.11 in 10.0 miles NNW 9.2 mph 24.2 mph N/A   Clear
7:51 AM 28.9 °F 17.1 °F 61% 30.15 in 10.0 miles NNW 9.2 mph 17.3 mph N/A   Clear
8:51 AM 30.0 °F 16.0 °F 56% 30.18 in 10.0 miles North 11.5 mph 20.7 mph N/A   Clear
9:51 AM 30.0 °F 14.0 °F 51% 30.20 in 10.0 miles North 11.5 mph 18.4 mph N/A   Clear
10:51 AM 33.1 °F 12.9 °F 43% 30.21 in 10.0 miles North 15.0 mph 21.9 mph N/A   Clear
11:51 AM 35.1 °F 12.9 °F 40% 30.20 in 10.0 miles North 13.8 mph - N/A   Clear
12:51 PM 37.0 °F 10.0 °F 33% 30.19 in 10.0 miles North 11.5 mph 16.1 mph N/A   Clear
1:51 PM 37.9 °F 8.1 °F 29% 30.18 in 10.0 miles NW 10.4 mph - N/A   Clear
2:51 PM 39.0 °F 6.1 °F 26% 30.19 in 10.0 miles North 11.5 mph 19.6 mph N/A   Clear
3:51 PM 39.9 °F 7.0 °F 26% 30.19 in 10.0 miles NNW 8.1 mph 18.4 mph N/A   Clear
4:51 PM 39.0 °F 5.0 °F 24% 30.21 in 10.0 miles NW 8.1 mph - N/A   Clear
5:51 PM 37.0 °F 8.1 °F 30% 30.23 in 10.0 miles NNW 10.4 mph - N/A   Clear
6:51 PM 37.0 °F 10.0 °F 33% 30.26 in 10.0 miles North 8.1 mph - N/A   Clear

Powered by the Weather Underground, Inc.